CamptonHillsWeather.com

Find the Weather for any City, State  
or Zipcode, or Country:

Campton Hills, IL Weather
Local Radar

Local Radar

Graphs, Details
Graphs and Gauges
Detailed Weather
Detailed Reports
Ajax Version (old)
Central Kane Co Summary
Davis Current Weather Graphs
Davis 24 Hour Weather History

CW3778 Data

Weather Underground
Maps
Temperature
Heat Index
Windchill
Humidity
Radar
Dew Point
Wind
Visibility
Visible Satellite
Satellite
Fronts
Snow Depth
Jet Stream
Flight Rules
Forecast Maps
Temperature Forecast
Maximum Temperature Forecast
Minimum Temperature Forecast
Dewpoint Forecast
Prevalent Weather
12Hr Probability of Precip.
Sky Cover
Health Maps
UV Forecast
Air Quality
Peak Air Quality Index
Weather Station
Davis Instruments Vantage Pro
Current Conditions [Select Refresh to Update]

Updated: 3:04am on 2/6/16

(location)
Currently:
25.3F

Clear
Mostly Cloudy

High: 26.4 F< 
(1:30am
Low: 25.3 F 
(2:49am)
Wind: WSW 2 mph
Light Air
Gust: 3 mph
Today's High Wind: 5 mph (1:47am)
Humidity: 91%
Pressure: 30.33 in  (Steady
Pressure Rate: -0.008 in/hr
Dew Point: 23.0F
Wind Chill: 23.6 F
Heat Index (feels like): 31.1 F
Comfort Level: Uncomfortably Cold
Temperature Rate:  -0.53F/hr
 
5 Day Forecast
 
Sat Sun Mon Tue Wed
Clear Clear Clear Clear Clear
Mostly Cloudy Chance Rain Snow Snow Mostly Cloudy
39 42 33 23 22
28 28 18 10 11

Records and Normals
 
Temperature Forecast Normal Record
High 39 34 46
(2005)
Low 28 17 -7
(2007)
 
Links
 
 
Weather Advisories
No Advisories
Full Advisory Text...
Weather Map

Web Cam

Almanac
 
Sunrise:  
6:59am
Moonrise: 
5:17am

Moon Phase:
7%

Sunset: 
5:12pm
Moonset:  
3:29pm
 Star Chart...
Rainfall Totals
Hourly Rain 0.00 in
Daily Rain: 0.00 in
Monthly Rain: 0.81 in
Yearly Rain: 2.18 in
Normal Rain, month to date: 1.41 in
Normal Rain, year to date: 2.10 in
Link to Village of Campton Hills Map

Link to Counties of Illinois Map

Local Weather Exchange Network
Station ID City 
(Click for Map Location)
Neighborhood 
(Click for History)
Last Update (Date & Time) Temperature
 ()
Dew
Point ()
Humidity 
(%)
Wind 
(mph)
from the Wind Gust 
(mph) 
Pressure(in) Hourly
Rain(in)
KILSAINT20 Saint Charles Knoll Creek Drive 02/06 02:56:55 26.4 22.0 84 0 North 0 30.22 0.00
KILSAINT17 Saint Charles Glen Oak Lane 02/06 02:55:26 28.6 22.0 77 0 North 0 30.33 0.00
KILSAINT15 Saint Charles Shoreline Drive 02/06 02:56:52 29.7 20.0 66 0 North 0 30.36 0.00
KILSAINT10 Saint Charles Saint Charles Burr Road 02/06 02:49:29 23.9 23.0 96 2 South 0 30.01 0.00
KILGENEV5 Geneva meso_neigh5 02/06 02:57:52 59.3 34.0 39 0 West 0 30.20 0.00
KILSTCHA10 St. Charles Hunt Club 02/06 02:57:50 24.8 10.0 52 0 WSW 0 29.77 0.00
KILWAYNE5 Wayne Persimmon Drive 02/06 02:56:40 29.5 24.0 81 0 North 0 30.35 0.00
KILSAINT8 Saint Charles St. Charles Near West Side 02/06 02:46:57 23.7 21.0 90 2 SW 0 30.04 0.00
KILSAINT7 Saint Charles Silver Glen 02/06 02:58:17 25.7 20.0 78 3 WSW 5 29.87 0.00
KILCAMPT3 Campton Hills Campton Hills 02/06 02:58:17 25.4 23.0 90 0 SW 0 30.33 0.00
KILSAINT6 Saint Charles 3 Lakes 02/06 02:43:48 25.0 21.0 86 0 South 0 30.04 0.00
KILGENEV16 Geneva Fisher Farms 02/06 02:57:51 21.0 20.0 98 0 ESE 0 29.43 0.00
KILSOUTH10 South Elgin East Thornwood Drive 02/06 02:56:12 25.3 22.0 88 0 North 0 29.30 0.00
KILSAINT9 Saint Charles Fox Chase 02/06 02:58:16 25.7 21.0 83 0 SW 0 30.26 0.00
KILGENEV6 Geneva Dover Ridge 02/06 02:58:12 25.1 23.0 90 2 SSW 2 30.30 0.00
MUR354 Geneva MesoWest 02/06 02:10:00 21.0 0.0 0 3 SW 5 0.00 0.00
KILELBUR18 Elburn Elodie Drive 02/06 02:55:31 27.1 22.0 79 0 North 0 28.77 0.00
KILGENEV10 Geneva Southampton Drive 02/06 02:55:55 24.1 24.0 100 0 North 0 30.35 0.00
KILSTCHA8 St. Charles Ronzheimer Ave. & S. Tyler Rd. 02/06 02:58:07 25.1 22.0 89 2 SW 5 30.30 0.00
KILGENEV9 Geneva Saint Andrews Circle 02/06 02:56:01 24.4 23.0 93 0 North 0 30.34 0.00
KILGENEV3 Geneva Mill Creek (Blackberry Way) 02/06 02:58:02 25.0 23.0 91 0 WSW 0 30.38 0.00
KILSTCHA1 St Charles CamptonHillsWeather.com Central Kane County 02/06 02:58:15 25.3 23.0 91 3 WSW 3 30.33 0.00
KILGENEV7 Geneva Eldorado Drive 02/06 02:55:54 26.1 26.0 99 0 North 0 30.20 0.00
KILGENEV8 Geneva Alexander Drive 02/06 02:55:40 23.9 17.0 74 0 North 0 29.36 0.00
KILGENEV13 Geneva Alexander Drive 02/06 02:55:24 25.7 23.0 90 0 North 0 30.28 0.00
KILSOUTH5 South Elgin Concord Park 02/06 02:49:15 28.9 18.0 62 5 South 0 30.03 0.00
KILWAYNE7 Wayne Honey Hill 02/06 02:58:05 24.7 23.0 95 0 North 0 29.68 0.00
KILGENEV2 Geneva Mill Creek 02/06 02:45:15 24.3 22.0 89 1 SW 2 30.27 0.00
KILBATAV13 Batavia Blackhawk Dr, Batavia 02/06 02:57:50 25.5 18.0 74 0 SE 0 30.28 0.00
KILELBUR11 Elburn Cheval de Selle 02/06 02:44:35 22.8 22.0 97 0 South 0 30.25 0.00
KILBATAV7 Batavia Charleston Street 02/06 02:55:56 24.8 24.0 96 0 North 0 30.35 0.00
KILELBUR13 Elburn Hicks Drive 02/06 02:55:22 57.2 37.0 46 0 North 0 30.13 0.00
KILBATAV6 Batavia Tri Cities on the Fox River 2 02/06 02:30:17 25.9 20.0 78 0 SSE 0 30.31 0.00
KILBATAV1 Batavia Tri-Cities on the Fox River 02/06 02:58:01 25.8 19.0 74 0 SW 0 30.32 0.00
KILELGIN16 Elgin Providence Subdivision 02/06 02:55:11 24.8 21.0 86 0 NE 0 30.02 0.00
KILELBUR10 Elburn Prairie Valley North 02/06 02:57:55 23.4 22.0 93 3 SW 5 30.15 0.00
KILELGIN20 Elgin Williamsburg Drive 02/06 02:56:26 26.8 23.0 86 0 North 0 30.24 0.00
KILELBUR15 Elburn East North Street 02/06 02:56:43 32.2 22.0 65 0 North 0 30.09 0.00
KILBATAV10 Batavia Deerpath Road 02/06 02:55:45 27.9 24.0 85 0 North 0 30.30 0.00
KILELBUR9 Elburn Griffith Avenue 02/06 02:55:27 26.4 23.0 86 0 North 0 29.49 0.00
Full Advisory Text
No Warnings

Ambient Weather and Weather Underground
 Never base important decisions on this or any weather information obtained from the Internet
Updated Automatically by Ambient Weather's Virtual Weather Station  V13.01